This is the latest recevied weather packets stored in our database for station/object KJ4EWA. If no packets are shown the sender has not sent any weather packets the latest 10 day(s).
| Time | Temp. | Humidity | Pressure | Rain* | Wind** | Luminosity | Snow |
|---|---|---|---|---|---|---|---|
| 1777833311 | 25.56° C | 41% | 1023 hPa | 0 mm | - | 749 W/m² | - |
| 1777833008 | 26.11° C | 42% | 1023.1 hPa | 0 mm | - | 740 W/m² | - |
| 1777832707 | 25° C | 40% | 1023.2 hPa | 0 mm | - | 725 W/m² | - |
| 1777832404 | 25.56° C | 40% | 1023.5 hPa | 0 mm | - | 632 W/m² | - |
| 1777832101 | 26.11° C | 43% | 1023.5 hPa | 0 mm | - | 635 W/m² | - |
| 1777831796 | 25.56° C | 41% | 1023.4 hPa | 0 mm | - | 707 W/m² | - |
| 1777831495 | 26.11° C | 40% | 1023.3 hPa | 0 mm | - | 755 W/m² | - |
| 1777831191 | 25.56° C | 39% | 1023.3 hPa | 0 mm | - | 814 W/m² | - |
| 1777830890 | 26.11° C | 42% | 1023.3 hPa | 0 mm | - | 795 W/m² | - |
| 1777830585 | 26.11° C | 47% | 1023.4 hPa | 0 mm | - | 712 W/m² | - |
| 1777830283 | 26.11° C | 47% | 1023.4 hPa | 0 mm | - | 28 W/m² | - |
| 1777829978 | 25.56° C | 43% | 1023.8 hPa | 0 mm | - | 758 W/m² | - |
| 1777829674 | 25.56° C | 40% | 1023.6 hPa | 0 mm | - | 730 W/m² | - |
| 1777829371 | 25° C | 45% | 1023.6 hPa | 0 mm | - | 695 W/m² | - |
| 1777829069 | 25.56° C | 39% | 1023.6 hPa | 0 mm | - | 745 W/m² | - |
| 1777828765 | 25.56° C | 45% | 1024.1 hPa | 0 mm | - | 763 W/m² | - |
| 1777828462 | 25.56° C | 42% | 1023.8 hPa | 0 mm | - | 745 W/m² | - |
| 1777828160 | 25° C | 45% | 1024 hPa | 0 mm | - | 757 W/m² | - |
| 1777827855 | 25° C | 47% | 1024 hPa | 0 mm | - | 710 W/m² | - |
| 1777827553 | 25° C | 42% | 1024.4 hPa | 0 mm | - | 599 W/m² | - |
| 1777827250 | 25.56° C | 46% | 1024.4 hPa | 0 mm | - | 593 W/m² | - |
| 1777826946 | 25° C | 48% | 1024.3 hPa | 0 mm | - | 681 W/m² | - |
| 1777826644 | 25° C | 44% | 1024.2 hPa | 0 mm | - | 774 W/m² | - |
| 1777826340 | 24.44° C | 44% | 1024.1 hPa | 0 mm | - | 718 W/m² | - |
| 1777826038 | 24.44° C | 47% | 1024.3 hPa | 0 mm | - | 710 W/m² | - |
* Rain latest hour (hover to see other rain measurements)
** Current wind speed in m/s (hover to see current wind gust speed)